Regional Weather Roundup
Issued by NWS Mt. Holly, NJ

Current Version | Previous Version | Text Only | Print | Product List | Glossary Off
Versions: 1 2 3 4 5 6 7 8 9 10 11 12 13 14 15 16 17 18 19 20 21 22 23 24 25 26 27 28 29 30 31 32 33 34 35 36 37 38 39 40 41 42 43 44 45 46 47 48 49 50

000
ASUS41 KPHI 181110
RWRPHI

REGIONAL WEATHER ROUNDUP
NATIONAL WEATHER SERVICE MOUNT HOLLY NJ
700 AM EDT THU SEP 18 2014

NOTE:  "FAIR" INDICATES FEW OR NO CLOUDS BELOW 12,000 FEET WITH NO
SIGNIFICANT WEATHER AND/OR OBSTRUCTIONS TO VISIBILITY.

 * = STATION DOES NOT REPORT PRECIPITATION (E.G. RAIN, SNOW, ETC.)
        OR FOG.

NJZ015>026-181200-
SOUTHERN NEW JERSEY

CITY           SKY/WX    TMP DP  RH WIND       PRES   REMARKS
POMONA         CLEAR     52  49  89 W3        30.00R
RIO GRANDE*    CLEAR     52  46  82 CALM      30.01R
MILLVILLE      CLEAR     47  46  97 CALM      30.00R
WRIGHTSTOWN    CLEAR     49  48  97 CALM      29.98R
MOUNT HOLLY      N/A     47  45  93 CALM      30.00R
TRENTON        MOCLDY    49  47  93 N5        29.99R

$$
NJZ001>014-181200-
NORTHERN NEW JERSEY

CITY           SKY/WX    TMP DP  RH WIND       PRES   REMARKS
SUSSEX         CLOUDY    44  41  89 SW3       30.02R
ANDOVER*         N/A     44  43  96 CALM      30.02R
MORRISTOWN     PTCLDY    45  43  93 CALM      30.01R
NEWARK         PTCLDY    57  52  83 N5        30.00R
TETERBORO      CLEAR     52  46  80 CALM      29.99R
CALDWELL       PTCLDY    46  44  93 CALM      30.01R
SOMERVILLE     CLOUDY    45  42  89 CALM      29.99R
ALLAIRE*       CLEAR     52  46  82 NW5       29.99R
TOMS RIVER*    CLEAR     43  39  87 CALM      30.00R

$$
PAZ043-044-047-054-055-060>062-066>071-181200-
EASTERN PENNSYLVANIA

CITY           SKY/WX    TMP DP  RH WIND       PRES   REMARKS
PHILADELPHIA   MOCLDY    57  49  74 CALM      30.01R
NORTH PHILA    MOCLDY    53  48  83 CALM      30.02R
BLUE BELL      PTCLDY    46  46 100 CALM      30.00R
DOYLESTOWN     CLOUDY    47  47 100 CALM      30.00R
QUAKERTOWN*    CLOUDY    46  45  93 CALM      30.01S
POTTSTOWN      CLOUDY    49  48  97 CALM      30.02R
LANCASTER      CLOUDY    51  48  89 CALM      30.00R
COATESVILLE    MOCLDY    55  50  82 CALM      30.01R
READING        CLOUDY    51  47  86 N3        30.00R
ALLENTOWN      CLOUDY    50  46  86 CALM      30.01R
MOUNT POCONO   MOCLDY    45  32  60 CALM      30.02R
HAZLETON       CLOUDY    46  45  93 CALM      30.04S
WILKES BARRE   CLOUDY    48  44  86 CALM      30.02R

$$
DEZALL-MDZ008-012-015-019-020-181200-
DELAWARE AND EASTERN MARYLAND

CITY           SKY/WX    TMP DP  RH WIND       PRES   REMARKS
WILMINGTON     PTCLDY    53  50  89 CALM      30.00S
DOVER          CLEAR     55  50  83 W2        29.97R
GEORGETOWN     CLEAR     51  48  89 CALM      30.00R
EASTON         PTCLDY    55  55 100 CALM      30.03R
PATUXENT       MOCLDY    59  57  93 CALM      29.99R
OCEAN CITY     CLEAR     51  48  89 NW3       30.00R
WALLOPS ISLAND CLEAR     54  51  90 N5        30.00R
CAMBRIDGE      PTCLDY    52  50  93 CALM      29.99R
SALISBURY      CLEAR     52  46  80 CALM      30.00R

$$
PAZ001-021-NYZ056-072-MDZ011-DCZ001-181200-
OTHER NEARBY LOCATIONS

CITY           SKY/WX    TMP DP  RH WIND       PRES   REMARKS
HARRISBURG     CLOUDY    55  51  86 CALM      30.00R
STATE COLLEGE  FOG       46  46 100 CALM      30.03R VSB 1/2
WILLIAMSPORT   FOG       50  47  89 NW5       30.02R VSB 1
BINGHAMTON     CLEAR     45  43  93 W5        30.02R
NEW YORK CITY  CLEAR     57  49  74 CALM      30.02R
BALTIMORE      MOCLDY    57  54  89 CALM      29.99R
WASHINGTON DC  CLOUDY    64  53  67 CALM      30.00R

$$


USA.gov is the U.S. government's official web portal to all federal, state and local government web resources and services.